OpenBCM V1.08-5-g2f4a (Linux)

Packet Radio Mailbox

IZ3LSV

[San Dona' di P. JN]

 Login: GUEST





  
I0OJJ  > KEPS     12.03.25 06:04l 323 Lines 15446 Bytes #118 (0) @ AMSAT
BID : ORB25071.1
Read: GUEST
Subj: 2Line Orbital Elements 25071.AMSAT
Path: IZ3LSV<DB0ERF<DK0WUE<PD0LPM<PI8ZTM<PY2BIL<LU9DCE<EA2RCF<I0OJJ
Sent: 250312/0345z @:I0OJJ.ITA.EU [Rome] obcm1.08-6-g5b69
From: I0OJJ @ I0OJJ.ITA.EU (Gustavo)
To:   KEPS @ AMSAT
X-Info: This message was generated automatically


QST de W1STR

AMSAT Orbital Elements for Amateur Satellites in TLE Format
From Orbital Analysis Office
New England Sci-Tech STEM Education Center
Natick, MA March 12, 2025
To all radio amateurs


These element sets describe the orbits of various satellites 
in use by the amateur radio community. For details see:
www.amsat.org/keplerian-elements-formats/

A daily update of element sets is available at:
www.amsat.org/tle/daily-bulletin.txt
or without bulletin text:
www.amsat.org/tle/dailytle.txt


AO-07
1 07530U 74089B   25070.56614969 -.00000022  00000-0  15400-3 0  9991
2 07530 101.9950  73.8671 0011869 294.5293 184.0720 12.53687038302542
UO-11
1 14781U 84021B   25070.56380160  .00002803  00000-0  30462-3 0  9990
2 14781  97.7437  38.7958 0006077 276.5286  83.5239 14.88870847188244
AO-27
1 22825U 93061C   25070.42533738  .00000233  00000-0  10615-3 0  9991
2 22825  98.7485 131.4876 0008717  24.6403 335.5194 14.30745392640822
FO-29
1 24278U 96046B   25070.47633648  .00000000  00000-0  37926-4 0  9994
2 24278  98.5850 336.1923 0349304 215.8679 141.8549 13.53239688410586
NOAA-15
1 25338U 98030A   25070.84801085  .00000341  00000-0  15827-3 0  9993
2 25338  98.5455  98.0996 0009128 260.4222  99.5928 14.26905156395602
GO-32
1 25397U 98043D   25070.42130195  .00000215  00000-0  11331-3 0  9999
2 25397  98.9617  47.7017 0002352  99.3979 260.7465 14.24268980385451
ISS
1 25544U 98067A   25070.82617580  .00012602  00000-0  22911-3 0  9990
2 25544  51.6353  69.2581 0006391  10.5433 349.5688 15.49902436500068
NO-44
1 26931U 01043C   25070.52926837  .00000424  00000-0  19008-3 0  9996
2 26931  67.0530   0.6550 0005725 266.5613  93.4835 14.31649070224216
SO-50
1 27607U 02058C   25070.50020810  .00002357  00000-0  31583-3 0  9997
2 27607  64.5532 118.5059 0045904 356.0731   4.0006 14.81103676195883
CO-55
1 27844U 03031E   25070.80812068  .00000710  00000-0  32901-3 0  9995
2 27844  98.6794  80.2325 0010887  88.7641 271.4785 14.23863624125896
CO-57
1 27848U 03031J   25070.50413194  .00000594  00000-0  28172-3 0  9998
2 27848  98.6823  80.0054 0010758 104.5921 255.6451 14.23217138125555
RS-22
1 27939U 03042A   25070.90432788  .00002436  00000-0  39704-3 0  9995
2 27939  98.3177 238.2497 0010574 295.7155 221.9374 14.71908142147639
NOAA-18
1 28654U 05018A   25070.79996536  .00000353  00000-0  21068-3 0  9998
2 28654  98.8469 151.2762 0014419  28.7346 331.4618 14.13537960 21068
CO-58
1 28895U 05043F   25070.37586125  .00003387  00000-0  56771-3 0  9995
2 28895  98.2329 213.7060 0014260 229.7628 130.2331 14.70369929 33688
CO-65
1 32785U 08021C   25070.50880731  .00008791  00000-0  66087-3 0  9997
2 32785  97.7773  41.1481 0011732 143.5836 216.6189 15.02756130915547
AAUSAT2
1 32788U 08021F   25070.70304843  .00137157  00000-0  20669-2 0  9991
2 32788  97.6059  63.8133 0003873  95.9007 264.2687 15.54302355919378
CO-66
1 32791U 08021J   25070.48225890  .00019560  00000-0  10475-2 0  9995
2 32791  97.7214  48.7602 0006996 107.1961 253.0036 15.15039487916835
RS-30
1 32953U 08025A   25070.82855280  .00000037  00000-0  19270-3 0  9991
2 32953  82.4987 283.0138 0018704 240.6864 119.2348 12.43159840762388
NOAA-19
1 33591U 09005A   25070.79171321  .00000320  00000-0  19467-3 0  9995
2 33591  99.0080 134.9575 0012852 255.7923 104.1821 14.13305380829424
SRMSAT
1 37841U 11058D   25070.09676873  .00000581  00000-0  17227-3 0  9994
2 37841  19.9733 342.0851 0011858 149.5039 238.8142 14.11380029692312
ZACUBE-1
1 39417U 13066B   25070.82858250  .00010977  00000-0  98542-3 0  9997
2 39417  97.7701  28.4540 0045280 355.0967   4.9804 14.95105798611499
Delfi-N3xt
1 39428U 13066N   25070.82766258  .00013257  00000-0  14115-2 0  9992
2 39428  97.8368 349.5975 0086340 296.6917  62.5478 14.86305167605916
GOMX-1
1 39430U 13066Q   25070.88609579  .00003486  00000-0  54989-3 0  9990
2 39430  97.6970 295.0201 0135026 119.1135 242.3666 14.67021796602253
LO-74
1 39440U 13066AA  25070.58665653  .00007081  00000-0  73736-3 0  9999
2 39440  97.8411  15.8914 0065575 115.9004 244.8991 14.88524002608047
AO-73
1 39444U 13066AE  25070.77686997  .00015398  00000-0  12186-2 0  9999
2 39444  97.7578  32.5838 0040638 332.7279  27.1810 15.00043839610708
DTUSAT-2
1 40030U 14033W   25070.47819627  .00011297  00000-0  77667-3 0  9992
2 40030  98.0454  38.1156 0010266  19.2745 340.8867 15.06067184582825
EO-80
1 40032U 14033Y   25070.43672700  .00011757  00000-0  80623-3 0  9996
2 40032  98.0352  37.8503 0007023 319.6984  40.3720 15.06174346582790
LILACSAT-2
1 40908U 15049K   25070.86605787  .00017350  00000-0  49908-3 0  9990
2 40908  97.5147  89.1857 0011904 117.8288 242.4164 15.35787283524445
IO-86
1 40931U 15052B   25038.81889873  .00001817  00000-0  15548-3 0  9993
2 40931   6.0001 108.1159 0012838 187.7041 172.2889 14.78568669506492
Horyu-4
1 41340U 16012D   25070.51508934  .00028337  00000-0  90907-3 0  9992
2 41340  30.9994  15.3466 0007776 217.5537 142.4564 15.31099594498946
Lapan A3
1 41603U 16040E   25070.86698547  .00005705  00000-0  20589-3 0  9996
2 41603  97.1396  79.0390 0009796 221.5993 138.4504 15.28835419484075
CAS-2T
1 41847U 16066G   25070.49205984  .00002701  00000-0  39062-3 0  9991
2 41847  98.4275 145.7311 0348613  91.0064 273.1080 14.43109156438020
CAS-4B
1 42759U 17034B   25070.86404237  .00057926  00000-0  98893-3 0  9999
2 42759  43.0104 131.7392 0016784  19.3396 340.8098 15.50340191428616
CAS-4A
1 42761U 17034D   25070.88528234  .00060731  00000-0  10130-2 0  9993
2 42761  43.0142 129.4563 0017979  25.6107 334.5641 15.50950844428630
TechnoSat
1 42829U 17042E   25070.73323196  .00006029  00000-0  48012-3 0  9992
2 42829  97.3894 243.7652 0012256 224.4548 135.5694 15.00661879417245
AO-91
1 43017U 17073E   25070.69630983  .00011674  00000-0  61768-3 0  9991
2 43017  97.5434 303.7940 0182022 112.1143 249.9516 15.02353891395700
S-Net D
1 43186U 18014G   25070.31517483  .00006916  00000-0  42583-3 0  9999
2 43186  97.5714 334.1901 0009692 162.6328 197.5234 15.10271410388745
S-Net B
1 43187U 18014H   25070.31947906  .00007036  00000-0  43329-3 0  9990
2 43187  97.5720 334.1617 0010577 159.1164 201.0500 15.10255598388746
S-Net A
1 43188U 18014J   25070.24960233  .00007009  00000-0  43143-3 0  9995
2 43188  97.5728 334.2313 0010418 159.9327 200.2314 15.10274509388738
S-Net C
1 43189U 18014K   25070.25542085  .00007207  00000-0  44359-3 0  9998
2 43189  97.5744 334.2356 0012206 154.4367 205.7468 15.10250888387288
Ten-Koh
1 43677U 18084G   25070.55625723  .00005837  00000-0  47719-3 0  9991
2 43677  98.0943 239.2219 0010167 202.9902 157.0866 14.99734959346746
PO-101
1 43678U 18084H   25070.81593813  .00004987  00000-0  43236-3 0  9990
2 43678  98.0953 243.5793 0008050 217.3487 142.7175 14.97550571346949
QO-100
1 43700U 18090A   25070.74776653  .00000128  00000-0  00000+0 0  9991
2 43700   0.0193 151.2651 0001480 228.5791  84.7542  1.00273075 23287
MinXSS-2
1 43758U 18099A   25070.76706003  .00023376  00000-0  10393-2 0  9996
2 43758  97.5136 136.7110 0014082 113.2434 247.0286 15.21420756343295
AO-95
1 43770U 18099N   25070.42890583  .00012518  00000-0  68052-3 0  9992
2 43770  97.5054 129.6034 0012208 160.1974 199.9734 15.14560769342891
RANGE-A
1 43773U 18099R   25070.38920084  .00006482  00000-0  42827-3 0  9995
2 43773  97.4624 121.4207 0013083 136.8142 223.4115 15.07664330342625
MOVE-II
1 43780U 18099Y   25070.15314093  .00087972  00000-0  17685-2 0  9991
2 43780  97.4783 141.0698 0003983 137.1353 223.0207 15.46307037343706
SNUSat 2
1 43782U 18099AA  25070.10810457  .00012554  00000-0  72524-3 0  9991
2 43782  97.4737 126.7475 0013909 107.2096 253.0658 15.12359896342818
SnugLite
1 43784U 18099AC  25070.60984771  .00013660  00000-0  73671-3 0  9992
2 43784  97.4552 126.6430 0005215 109.5329 250.6466 15.14872973343000
ITASat 1
1 43786U 18099AE  25070.41911225  .00008899  00000-0  53458-3 0  9996
2 43786  97.4707 126.8076 0015943 153.4242 206.7809 15.11013232342838
EAGLET 1
1 43790U 18099AJ  25070.60527704  .00006722  00000-0  44284-3 0  9997
2 43790  97.4901 127.2089 0013827 134.0760 226.1609 15.07753309342506
ESEO
1 43792U 18099AL  25070.62124990  .00004080  00000-0  31519-3 0  9993
2 43792  97.4597 121.6436 0011875 106.9979 253.2548 15.02013876342319
CSIM
1 43793U 18099AM  25070.78269992  .00105494  00000-0  20755-2 0  9993
2 43793  97.4962 143.7692 0005450 101.4847 258.7014 15.46859084343643
JO-97
1 43803U 18099AX  25070.43085894  .00015006  00000-0  74881-3 0  9993
2 43803  97.4798 130.4408 0009269 102.7091 257.5179 15.17569839343088
Suomi 100
1 43804U 18099AY  25070.11516501  .00015336  00000-0  80716-3 0  9993
2 43804  97.4864 129.6513 0014384 103.8913 256.3920 15.15634108342988
ISAT
1 43879U 18111D   25070.49694173  .00026333  00000-0  10661-2 0  9993
2 43879  97.6023 343.1901 0011254 141.6464 218.5576 15.24606467339943
UWE-4
1 43880U 18111E   25070.26854804  .00017604  00000-0  77835-3 0  9997
2 43880  97.5960 342.0004 0013910 156.1275 204.0608 15.21675326339873
Sparrow
1 43881U 18111F   25070.28175266  .00023373  00000-0  92120-3 0  9992
2 43881  97.6149 345.5284 0007461 174.0025 186.1303 15.25564552339995
Prox-1
1 44339U 19036A   25069.99037437  .00015445  00000-0  21069-2 0  9995
2 44339  23.9978 295.7037 0007165 113.7657 246.3591 14.76968084304599
SONATE
1 44400U 19038Q   25070.33482687  .00083564  00000-0  90828-3 0  9994
2 44400  97.7070  87.3301 0008138 199.6796 160.4149 15.63161448315354
Taurus 1
1 44530U 19059C   25070.84368768  .00012384  00000-0  23888-2 0  9993
2 44530  98.5937 206.1617 0009259 304.8912  55.1418 14.63600145290807
